[[{"header":{"parameterUnit":"m.s-1","parameterCategory":1,"la1":30.2991,"la2":30.254,"lo1":-89.0895,"lo2":-89.0444,"dy":0.0017,"dx":0.0017,"nx":28,"ny":28,"refTime":"2025-07-17T09:00:00:Z","depth":0,"parameterNumber":2,"parameterNumberName":"U-component_of_WINDS"},"data":[0,0,0,0,0,0,0,0,0,0,0,0,0,0,0,0,0,0,0,0,0,0,0,0,0,0,0,0,0,0,0,0,0,0,0,0,0,0,0,0,0,0,0,0,0,0,0,0,0,0,0,0,0,0,0,0,0,0,0.4085,0.4084,0,0.3955,0.3954,0.3952,0.3831,0.3829,0.3828,0.3826,0.3692,0.369,0.3688,0,0,0,0,0,0,0,0,0,0,0,0,0,0.4225,0.4223,0.4085,0.4084,0.4082,0.3956,0.3954,0.3952,0.3831,0.3829,0.3827,0.3825,0.3693,0.3691,0.3688,0,0,0,0,0,0,0,0,0,0,0,0,0,0.4137,0.4223,0.4086,0.4006,0.3998,0.3956,0.3954,0.3952,0.3831,0.3829,0.3827,0.3825,0.3694,0.3691,0.3688,0.3713,0,0,0.3678,0.3677,0,0,0,0,0,0,0,0,0.4142,0.4132,0.402,0.4012,0.4002,0.3907,0.3954,0.3872,0.3832,0.3895,0.3826,0.3823,0.3766,0.3756,0.3737,0.3707,0.3701,0.3678,0.3676,0.3674,0.3673,0,0,0,0,0,0,0,0.4148,0.4137,0.4034,0.4018,0.4007,0.3976,0.3961,0.3938,0.3844,0.3889,0.388,0.3866,0.376,0.374,0.3733,0.3699,0.3678,0.3675,0.3673,0.3672,0.3681,0.3683,0,0,0,0,0,0,0.4167,0.4143,0.4038,0.403,0.4068,0.3976,0.3959,0.394,0.3844,0.3828,0.3868,0.3861,0.3747,0.3737,0.3728,0.3749,0.3674,0.3671,0.3669,0.3678,0.3681,0.3683,0,0,0,0,0,0,0.417,0.4159,0.4043,0.4084,0.4067,0.3976,0.3955,0.3938,0.3918,0.3829,0.3811,0.3865,0.3745,0.3732,0.3717,0.3743,0.367,0.3667,0.3676,0.3679,0.3682,0.3795,0,0,0,0,0,0,0.4175,0.4161,0.417,0.4085,0.4065,0.4036,0.3957,0.3938,0.3913,0.3902,0.3821,0.3805,0.3742,0.3723,0.3714,0.3737,0.3664,0.3673,0.3677,0.3681,0.3788,0.3801,0.3813,0,0,0,0,0,0.418,0.4208,0.4172,0.416,0.4075,0.4038,0.4026,0.3953,0.3916,0.3924,0.3866,0.3808,0.3742,0.3722,0.3711,0.3734,0.3671,0.3676,0.3681,0.3783,0.3799,0.3812,0,0,0,0,0,0,0.4299,0.4195,0.4154,0.4155,0.4106,0.4017,0.4026,0.3973,0.3934,0.3925,0.3835,0.3818,0.3813,0.3772,0.3752,0.3752,0.3698,0.3701,0.3779,0.3794,0.3806,0.3816,0.3662,0,0,0,0,0,0.4325,0.4304,0.4214,0.4223,0.4201,0.4118,0.4099,0.4046,0.3992,0.3971,0.3912,0.3861,0.3828,0.3809,0.3774,0.3781,0.3761,0.3792,0.3804,0.3814,0.3818,0.3816,0.3828,0.3699,0.3699,0.3699,0,0,0.438,0.432,0.4312,0.4246,0.4202,0.4181,0.4102,0.4083,0.4066,0.3968,0.395,0.3905,0.3842,0.3837,0.3833,0.3803,0.3848,0.382,0.3829,0.3827,0.3822,0.3835,0.3845,0.3703,0.3702,0.3702,0,0,0.4467,0.4421,0.4422,0.4379,0.4314,0.4258,0.4258,0.4177,0.4143,0.4123,0.4048,0.4026,0.3973,0.393,0.3901,0.397,0.3914,0.3961,0.4025,0.4024,0.4034,0.4043,0.4066,0.4075,0.3965,0.3965,0.3965,0,0.4542,0.4508,0.443,0.4415,0.4387,0.4297,0.4296,0.4258,0.4185,0.4167,0.4135,0.4064,0.4015,0.3999,0.4015,0.3996,0.3992,0.397,0.4039,0.4047,0.4054,0.4074,0.4084,0.3971,0.3971,0.397,0.3969,0,0.4603,0.4581,0.459,0.452,0.4493,0.4486,0.4405,0.4387,0.4336,0.4283,0.4263,0.4201,0.4151,0.4143,0.4094,0.4118,0.4102,0.4056,0.4,0.4073,0.4091,0.4099,0.398,0.3978,0.3976,0.3974,0,0,0.4763,0.4649,0.4653,0.4619,0.4539,0.452,0.4507,0.4458,0.4443,0.4395,0.4381,0.4337,0.4293,0.4261,0.4205,0.4205,0.4261,0.4158,0.4155,0.4178,0.4282,0.4317,0.4327,0.4224,0.4225,0.4226,0.4287,0,0.4836,0.481,0.4737,0.4732,0.4709,0.4622,0.461,0.4559,0.4509,0.4481,0.4425,0.4394,0.434,0.4319,0.4315,0.4255,0.428,0.425,0.4209,0.4208,0.4227,0.4337,0.4374,0.4434,0.4293,0.4294,0.4295,0,0.4918,0.4875,0.4868,0.4786,0.4774,0.4765,0.4713,0.4688,0.4627,0.459,0.4553,0.4492,0.4472,0.442,0.4391,0.4372,0.435,0.4318,0.4319,0.4312,0.4256,0.4332,0.4452,0.4461,0.4306,0.4305,0.4304,0,0.5034,0.4973,0.496,0.4935,0.484,0.4835,0.4796,0.4733,0.4707,0.4661,0.4643,0.4596,0.4569,0.4533,0.446,0.4429,0.4438,0.4381,0.4406,0.4408,0.4411,0.4412,0.4529,0.4399,0.4399,0.4399,0.4399,0,0.5122,0.5121,0.5011,0.5003,0.4998,0.4914,0.4911,0.4863,0.4807,0.4787,0.4709,0.4691,0.4596,0.4567,0.4509,0.4493,0.4482,0.445,0.4435,0.4457,0.4461,0.4441,0.4435,0.4401,0.4401,0.4401,0.44,0,0.5251,0.5177,0.5157,0.5068,0.5046,0.5046,0.4969,0.4957,0.4902,0.4877,0.4866,0.4779,0.4741,0.4664,0.4605,0.4565,0.4562,0.4535,0.4582,0.4573,0.4601,0.4599,0.4709,0.4719,0.4585,0.4586,0.4588,0,0.5312,0.5308,0.5219,0.52,0.5163,0.5134,0.5107,0.5023,0.4998,0.4927,0.4924,0.4879,0.4839,0.4782,0.4712,0.4666,0.4636,0.4678,0.4629,0.4651,0.4635,0.4636,0.4634,0.4689,0.4691,0.4693,0.4694,0,0.5428,0.5391,0.5355,0.5306,0.5276,0.5233,0.5187,0.5175,0.508,0.5056,0.5015,0.4984,0.4923,0.4879,0.4822,0.4779,0.472,0.471,0.4713,0.4735,0.4762,0.4746,0.4611,0.4708,0.4706,0.4705,0.4705,0.4704,0.5523,0.5515,0.545,0.5412,0.5368,0.5326,0.531,0.5251,0.5217,0.516,0.5112,0.5076,0.5013,0.493,0.4891,0.486,0.4831,0.4836,0.4837,0.484,0.4848,0.4768,0.4849,0.4849,0.4848,0.4848,0.4847,0,0.5633,0.5587,0.5553,0.5489,0.5459,0.5406,0.5351,0.5329,0.5298,0.5244,0.5206,0.5159,0.5115,0.5042,0.4992,0.4981,0.4953,0.4971,0.497,0.4961,0.4877,0.4879,0.4994,0.4994,0.4994,0.4994,0.4994,0.4994,0.5687,0.567,0.5625,0.5585,0.5538,0.5502,0.5475,0.5434,0.5391,0.5342,0.5305,0.5257,0.5195,0.5139,0.5096,0.5075,0.506,0.5087,0.5057,0.4981,0.4967,0.4954,0.4955,0.5084,0.5084,0.5143,0.5144,0.5144]},{"header":{"parameterUnit":"m.s-1","parameterCategory":1,"la1":30.2991,"la2":30.254,"lo1":-89.0895,"lo2":-89.0444,"dy":0.0017,"dx":0.0017,"nx":28,"ny":28,"refTime":"2025-07-17T09:00:00:Z","depth":0,"parameterNumber":3,"parameterNumberName":"V-component_of_WINDS"},"data":[0,0,0,0,0,0,0,0,0,0,0,0,0,0,0,0,0,0,0,0,0,0,0,0,0,0,0,0,0,0,0,0,0,0,0,0,0,0,0,0,0,0,0,0,0,0,0,0,0,0,0,0,0,0,0,0,0,0,7.1299,7.1301,0,7.1504,7.1506,7.1509,7.15,7.1497,7.1494,7.1492,7.1693,7.1701,7.1709,0,0,0,0,0,0,0,0,0,0,0,0,0,7.0887,7.0895,7.1298,7.1301,7.1304,7.1504,7.1507,7.1509,7.1501,7.1497,7.1494,7.149,7.169,7.17,7.1709,0,0,0,0,0,0,0,0,0,0,0,0,0,7.1076,7.0897,7.1298,7.1324,7.1328,7.1503,7.1507,7.151,7.1501,7.1497,7.1493,7.1489,7.1687,7.1699,7.1711,7.1871,0,0,7.1747,7.1753,0,0,0,0,0,0,0,0,7.1066,7.1091,7.1317,7.1322,7.1327,7.1472,7.1435,7.1631,7.1502,7.1435,7.1492,7.1487,7.1622,7.1639,7.1687,7.188,7.1889,7.1748,7.1756,7.1761,7.1764,0,0,0,0,0,0,0,7.1053,7.1083,7.138,7.1321,7.1327,7.1321,7.1343,7.1472,7.155,7.1441,7.1441,7.1466,7.1624,7.1676,7.1692,7.1892,7.1748,7.1759,7.1766,7.1771,7.2222,7.2227,0,0,0,0,0,0,7.1035,7.1072,7.1373,7.1386,7.1184,7.1332,7.1357,7.143,7.1549,7.1563,7.1469,7.1464,7.1657,7.1678,7.1699,7.1891,7.1761,7.1772,7.1779,7.2218,7.2223,7.2228,0,0,0,0,0,0,7.1027,7.1063,7.1365,7.1229,7.1267,7.1344,7.1426,7.1436,7.1488,7.157,7.1583,7.1508,7.1654,7.1682,7.1828,7.1898,7.1778,7.1789,7.2212,7.2219,7.2226,7.2279,0,0,0,0,0,0,7.1015,7.1059,7.1124,7.1231,7.1274,7.1494,7.143,7.1443,7.151,7.1506,7.161,7.1623,7.1653,7.181,7.184,7.1913,7.1798,7.2206,7.2215,7.2224,7.2271,7.2287,7.2301,0,0,0,0,0,7.1,7.113,7.1127,7.1164,7.1357,7.1498,7.1523,7.1557,7.1516,7.1579,7.1631,7.162,7.1886,7.1825,7.1859,7.1936,7.2202,7.2213,7.2223,7.2265,7.2284,7.2301,0,0,0,0,0,0,7.1027,7.1144,7.1143,7.1311,7.1395,7.1496,7.1578,7.1577,7.1672,7.1664,7.17,7.1724,7.1869,7.1917,7.1847,7.2095,7.2038,7.2056,7.2058,7.2077,7.2092,7.2076,7.1808,0,0,0,0,0,7.1053,7.1161,7.1256,7.1395,7.1438,7.1501,7.1563,7.1583,7.167,7.1704,7.1767,7.1849,7.1951,7.2017,7.2116,7.2279,7.2299,7.2348,7.2363,7.2375,7.2389,7.2474,7.2496,7.2264,7.2264,7.2263,0,0,7.1106,7.1184,7.1249,7.1403,7.147,7.1577,7.153,7.1646,7.1725,7.1721,7.1862,7.1912,7.2005,7.2159,7.2231,7.2204,7.2458,7.2388,7.2397,7.2405,7.2488,7.251,7.2529,7.2271,7.227,7.2268,0,0,7.1258,7.133,7.1452,7.152,7.1623,7.1664,7.1693,7.1795,7.1828,7.1971,7.1969,7.2061,7.2237,7.2303,7.2359,7.2534,7.2525,7.2565,7.264,7.2723,7.2742,7.2758,7.2816,7.2837,7.2579,7.2579,7.2579,0,7.1311,7.1476,7.1514,7.1631,7.1696,7.17,7.1821,7.1884,7.2013,7.2056,7.2025,7.2244,7.2308,7.2475,7.2518,7.2565,7.2595,7.2552,7.2737,7.2753,7.2769,7.2825,7.2847,7.2583,7.2583,7.2582,7.2582,0,7.1533,7.1647,7.1733,7.1859,7.1934,7.2053,7.2105,7.2176,7.2188,7.223,7.2374,7.245,7.2562,7.2604,7.2617,7.2773,7.2753,7.273,7.2672,7.2794,7.2847,7.287,7.2589,7.2587,7.2586,7.2585,0,0,7.1707,7.1853,7.1883,7.1939,7.2052,7.2139,7.2255,7.2368,7.2426,7.2514,7.2609,7.2757,7.2736,7.2799,7.2819,7.2893,7.3021,7.286,7.2862,7.2884,7.3193,7.3208,7.3233,7.3017,7.3022,7.3025,7.3184,0,7.1868,7.2079,7.2115,7.2297,7.24,7.2404,7.2505,7.2582,7.2625,7.2715,7.2761,7.2864,7.2829,7.2867,7.2941,7.299,7.3083,7.298,7.3102,7.3106,7.3076,7.3261,7.3278,7.3424,7.3205,7.3209,7.3212,0,7.2084,7.218,7.2373,7.2469,7.2514,7.2604,7.2708,7.2796,7.2883,7.2908,7.2979,7.299,7.3106,7.3046,7.3204,7.3133,7.3185,7.3217,7.3223,7.3233,7.3164,7.3273,7.3472,7.3493,7.3245,7.3243,7.324,0,7.2187,7.2364,7.2501,7.2549,7.2666,7.2729,7.278,7.2863,7.2927,7.3017,7.3058,7.316,7.3215,7.3291,7.3327,7.3281,7.3482,7.3425,7.3502,7.3501,7.3543,7.3539,7.375,7.3582,7.3581,7.3581,7.358,0,7.2361,7.2478,7.2549,7.2633,7.2762,7.2801,7.2927,7.2976,7.305,7.314,7.315,7.3234,7.3278,7.3367,7.3396,7.3521,7.3546,7.3567,7.3572,7.3565,7.3561,7.3597,7.3586,7.3587,7.3585,7.3584,7.3583,0,7.2497,7.255,7.2699,7.2798,7.2825,7.2916,7.2998,7.3078,7.312,7.3234,7.3263,7.3327,7.3433,7.3478,7.3607,7.3626,7.3768,7.3767,7.3739,7.374,7.3814,7.3805,7.4052,7.4085,7.3898,7.39,7.3901,0,7.2604,7.2694,7.2802,7.2865,7.2918,7.3019,7.3085,7.3126,7.3193,7.3298,7.3363,7.347,7.3557,7.3725,7.3781,7.3879,7.3878,7.3959,7.3893,7.3881,7.3875,7.3868,7.3876,7.3969,7.3971,7.3973,7.3974,0,7.2786,7.2807,7.2903,7.3008,7.3086,7.317,7.3251,7.3301,7.3354,7.3428,7.3538,7.3606,7.3738,7.3842,7.3943,7.3991,7.399,7.3995,7.4017,7.4008,7.3987,7.3996,7.3768,7.3988,7.3987,7.3986,7.3985,7.3984,7.2908,7.2987,7.3075,7.318,7.3246,7.3322,7.3401,7.3453,7.3546,7.3658,7.3676,7.3791,7.3872,7.4008,7.4061,7.4149,7.4128,7.4162,7.417,7.4176,7.4179,7.3975,7.4168,7.4167,7.4167,7.4167,7.4167,0,7.3087,7.3144,7.3241,7.3355,7.3437,7.3433,7.3522,7.3589,7.3692,7.3769,7.3855,7.3978,7.4079,7.4143,7.4243,7.4301,7.4303,7.4325,7.432,7.433,7.4194,7.4163,7.4322,7.4322,7.4322,7.4322,7.4322,7.4322,7.3189,7.3322,7.3353,7.3516,7.3571,7.3687,7.3737,7.3805,7.3867,7.4005,7.409,7.4132,7.4202,7.4307,7.4398,7.4414,7.4448,7.4472,7.4486,7.4357,7.434,7.4325,7.4296,7.448,7.448,7.4615,7.4616,7.4617]}]]